DW9955 Weather Reports


Display with metric or nautical units.
time (UTC)temp
F
wind
direction
speed
MPH
gust
MPH
rain 1hr
in
rain 24hr
in
rain mn
in
humidity
%
barometer
mb
20190325154545 37 12 7.0 11.0 0.01 0.13 0.01 91 1020.3
20190325153104 37 33 6.0 11.0 0.01 0.13 0.01 91 1020.1
20190325151546 37 4 5.0 14.0 0.01 0.13 0.01 91 1019.9
20190325150046 37 341 11.0 19.0 0.01 0.13 0.01 91 1019.7
20190325144525 37 314 7.0 11.0 0.00 0.12 0.00 91 1019.5
20190325143056 37 14 2.0 6.0 0.00 0.12 0.00 92 1019.5
20190325141531 37 35 4.0 8.0 0.00 0.12 0.00 92 1019.3
20190325140050 37 58 5.0 9.0 0.00 0.12 0.00 92 1019.2
20190325134527 37 13 4.0 12.0 0.00 0.12 0.00 91 1019.1
20190325133028 37 336 10.0 15.0 0.00 0.12 0.00 92 1018.8
20190325131512 37 354 8.0 14.0 0.00 0.12 0.00 92 1018.6
20190325130038 37 319 9.0 14.0 0.00 0.12 0.00 93 1018.5
20190325124506 37 322 7.0 13.0 0.00 0.12 0.00 93 1018.3
20190325123007 37 321 8.0 13.0 0.00 0.12 0.00 93 1018.3
20190325121646 38 349 7.0 12.0 0.00 0.12 0.00 93 1018.3
20190325120219 38 343 5.0 12.0 0.00 0.12 0.00 93 1018.1
20190325114620 38 316 2.0 6.0 0.00 0.12 0.00 94 1018.1
20190325113117 38 354 2.0 8.0 0.00 0.12 0.00 93 1018.0
20190325111659 38 4 2.0 6.0 0.00 0.12 0.00 93 1017.8
20190325110148 38 10 3.0 8.0 0.00 0.12 0.00 93 1017.6
20190325104626 38 31 0.0 0.0 0.00 0.12 0.00 93 1017.5
20190325103136 39 32 2.0 4.0 0.00 0.12 0.00 93 1017.5
20190325101551 39 50 2.0 4.0 0.00 0.12 0.00 93 1017.5
20190325100106 39 62 1.0 4.0 0.00 0.12 0.00 93 1017.5
20190325094612 39 29 0.0 3.0 0.00 0.12 0.00 93 1017.5
20190325093122 39 4 1.0 2.0 0.00 0.12 0.00 93 1017.5
20190325091601 39 326 0.0 2.0 0.00 0.12 0.00 93 1017.5
20190325090133 39 326 0.0 3.0 0.00 0.12 0.00 92 1017.5
20190325084546 40 269 0.0 1.0 0.00 0.12 0.00 92 1017.5
20190325083121 40 249 0.0 0.0 0.00 0.12 0.00 92 1017.5
20190325081547 40 249 0.0 0.0 0.00 0.12 0.00 92 1017.5
20190325080047 40 249 0.0 0.0 0.00 0.12 0.00 92 1017.5
20190325074611 40 249 0.0 0.0 0.00 0.12 0.00 91 1017.4
20190325073110 40 249 0.0 5.0 0.00 0.12 0.00 91 1017.4
20190325071613 41 147 3.0 7.0 0.00 0.12 0.00 92 1017.3
20190325070041 40 142 2.0 3.0 0.00 0.12 0.00 92 1017.4
20190325064531 40 160 0.0 0.0 0.00 0.12 0.00 92 1017.6
20190325063056 40 160 0.0 0.0 0.00 0.12 0.00 91 1017.7
20190325061600 40 160 0.0 0.0 0.00 0.12 0.00 90 1017.7
20190325060041 41 160 0.0 5.0 0.00 0.12 0.12 91 1017.6
20190325054542 40 164 0.0 0.0 0.00 0.12 0.12 90 1017.6
20190325053030 41 165 0.0 0.0 0.00 0.12 0.12 89 1017.6
20190325051557 41 174 2.0 3.0 0.00 0.12 0.12 90 1017.6
20190325050104 41 179 2.0 5.0 0.00 0.12 0.12 90 1017.7
20190325044610 41 188 0.0 1.0 0.00 0.12 0.12 89 1017.7
20190325043047 42 184 1.0 4.0 0.00 0.12 0.12 88 1017.8
20190325041537 42 154 1.0 3.0 0.00 0.12 0.12 88 1017.8
20190325040023 42 112 0.0 2.0 0.00 0.12 0.12 89 1017.7
20190325034545 42 108 0.0 0.0 0.00 0.12 0.12 89 1017.5
20190325033055 42 107 0.0 0.0 0.00 0.12 0.12 88 1017.5
20190325031601 42 172 0.0 0.0 0.00 0.12 0.12 89 1017.3
20190325030011 42 172 0.0 0.0 0.00 0.12 0.12 89 1017.2
20190325024512 43 172 0.0 4.0 0.00 0.12 0.12 89 1017.1
20190325023020 43 126 0.0 0.0 0.00 0.12 0.12 89 1017.0
20190325021518 43 126 0.0 0.0 0.00 0.12 0.12 89 1016.7
20190325020031 43 126 0.0 0.0 0.00 0.12 0.12 89 1016.6
20190325014510 44 126 0.0 0.0 0.00 0.12 0.12 87 1016.4
20190325013006 44 127 0.0 4.0 0.01 0.12 0.12 85 1016.2
20190325011514 44 147 1.0 7.0 0.01 0.12 0.12 86 1016.1
20190325010331 44 157 4.0 6.0 0.02 0.12 0.12 89 1016.0
20190325004711 44 175 1.0 3.0 0.04 0.12 0.12 89 1016.0
20190325003317 44 158 1.0 4.0 0.06 0.11 0.11 87 1015.8
20190325001654 44 129 2.0 4.0 0.08 0.11 0.11 88 1015.7
20190325000136 44 153 1.0 3.0 0.09 0.10 0.10 88 1015.6
20190324234658 44 198 0.0 2.0 0.08 0.08 0.08 88 1015.5
20190324233122 44 219 2.0 4.0 0.05 0.05 0.05 86 1015.5
20190324231622 44 239 2.0 7.0 0.03 0.03 0.03 84 1015.4
20190324230127 45 215 3.0 9.0 0.01 0.01 0.01 81 1015.2
20190324224715 47 187 0.0 10.0 0.00 0.00 0.00 76 1015.0
20190324223147 48 141 6.0 12.0 0.00 0.00 0.00 71 1014.9
20190324221612 50 138 0.0 8.0 0.00 0.00 0.00 64 1014.7
20190324220109 50 98 5.0 10.0 0.00 0.00 0.00 66 1014.5
20190324214644 49 71 8.0 13.0 0.00 0.00 0.00 68 1014.4
20190324213128 50 75 8.0 12.0 0.00 0.00 0.00 67 1014.2
20190324211612 51 129 4.0 9.0 0.00 0.00 0.00 57 1014.0
20190324210135 51 59 0.0 10.0 0.00 0.00 0.00 56 1014.1
20190324204742 52 97 2.0 5.0 0.00 0.00 0.00 55 1014.0
20190324203157 52 106 0.0 8.0 0.00 0.00 0.00 54 1014.0
20190324201624 51 92 1.0 9.0 0.00 0.00 0.00 55 1014.1
20190324200059 52 112 1.0 9.0 0.00 0.00 0.00 55 1014.1
20190324194607 51 100 1.0 9.0 0.00 0.00 0.00 57 1014.1
20190324193050 50 73 3.0 8.0 0.00 0.00 0.00 56 1014.1
20190324191643 50 108 3.0 9.0 0.00 0.00 0.00 56 1014.2
20190324184556 50 28 0.0 10.0 0.00 0.00 0.00 59 1013.9
20190324181557 50 34 4.0 10.0 0.00 0.00 0.00 59 1013.8
20190324174556 50 359 4.0 10.0 0.00 0.00 0.00 61 1014.0
20190324173056 50 39 5.0 9.0 0.00 0.00 0.00 58 1014.1
20190324171619 50 65 3.0 9.0 0.00 0.00 0.00 58 1014.0
20190324164623 50 349 4.0 8.0 0.00 0.00 0.00 61 1014.1
20190324161621 49 350 0.0 5.0 0.00 0.00 0.00 61 1014.2